User: anonymous   Login
Location: NJAA Observatory
(40.6819°N, 74.8979°W)
Time: 21:50:36
(UTC-05:00)
Language:

Cosmos 1461 - Orbit

View from above orbital plane
View from above orbital plane
View from above satellite
View from above satellite

Ground track
Ground track

The orbit data is extracted from the following two-line orbital elements,

1 14064U 83044A   17345.80734305  .00000443  00000-0  51760-4 0  9998
2 14064  65.0013  95.1609 0111520 326.3023  33.1034 14.93896494749888
Epoch (UTC): 11 December 2017 19:22:34
Eccentricity: 0.0111520
inclination: 65.0013°
perigee height: 508 km
apogee height: 663 km
right ascension of ascending node: 95.1609°
argument of perigee: 326.3023°
revolutions per day: 14.93896494
mean anomaly at epoch: 33.1034°
orbit number at epoch: 74988

The dashed part of the orbit path shows where the satellite is in the earth's shadow,  

DLR